Simultaneous Nadir Overpasses (SNOs) Predictions

Prediction of SNOs between METOP-B and TERRA Satellite Orbit:

Table of predicted SNOs for the next 14.0 days since TLE Epoch: 5/6/2023
Index Date (METOP-B) Time (METOP-B) Lat,Lon (METOP-B) SZA (METOP-B ) Date (TERRA) Time (TERRA) Lat,Lon (TERRA) SZA (TERRA ) Distance(km) Time Diff (sec)
1 05/06/2023 17:09:57 80.85, -44.54 65.83 05/06/2023 17:10:38 80.85, -44.37 65.86 3.09 41
2 05/06/2023 18:00:34 -80.92, 124.14 114.00 05/06/2023 17:59:58 -80.91, 123.97 114.04 3.13 36
3 05/09/2023 09:21:31 80.88, 73.23 65.19 05/09/2023 09:21:34 80.87, 73.12 65.18 2.12 3
4 05/09/2023 10:11:22 -81.36,-100.43 112.39 05/09/2023 10:10:09 -81.81,-101.15 112.26 51.44 73
5 05/12/2023 00:42:28 -80.87, 22.68 115.54 05/12/2023 00:43:09 -80.86, 22.57 115.53 1.97 41
6 05/12/2023 01:33:07 80.89,-169.43 64.54 05/12/2023 01:32:30 80.90,-169.28 64.54 2.79 37
7 05/14/2023 16:54:04 -80.88, 139.96 116.17 05/14/2023 16:54:05 -80.87, 139.94 116.17 0.36 1
8 05/17/2023 08:15:00 80.86, 89.44 63.18 05/17/2023 08:15:39 80.86, 89.33 63.19 1.93 39
9 05/17/2023 09:05:39 -80.90,-102.49 116.73 05/17/2023 09:05:00 -80.89,-102.58 116.76 1.88 39
10 05/19/2023 23:36:47 -79.45, 22.91 119.93 05/19/2023 23:38:01 -79.10, 24.45 120.14 50.76 74



Historial Predications of SNOs between METOP-B and TERRA
